Regional Weather Roundup
Issued by NWS

Home | Current Version | Previous Version | Graphics & Text | Print | Product List | Glossary On
Versions: 1 2 3 4 5 6 7 8 9 10 11 12 13 14 15 16 17 18 19 20 21 22 23 24 25 26 27 28 29 30 31 32 33 34 35 36 37 38 39 40 41 42 43 44 45 46 47 48 49 50
626
ASUS43 KIND 130409
RWRIN

WEATHER ROUNDUP FOR INDIANA
NATIONAL WEATHER SERVICE INDIANAPOLIS IN
1100 PM EST TUE DEC 12 2017

NOTE: "FAIR" INDICATES FEW OR NO CLOUDS BELOW 12,000 FEET WITH NO
SIGNIFICANT WEATHER AND/OR OBSTRUCTIONS TO VISIBILITY.

* - STATION DOES NOT REPORT WEATHER SUCH AS PRECIPITATION OR FOG.

+ - STATION NOT QUALITY CONTROLLED BY THE NATIONAL WEATHER SERVICE.
    USE DATA WITH CAUTION...ESPECIALLY DEWPOINT AND RELATIVE
    HUMIDITY OBSERVATIONS.

INZ001>003-010>013-019-020-130500-
NORTHWEST INDIANA

CITY           SKY/WX    TMP DP  RH WIND       PRES   REMARKS
GARY /AIRPORT/ CLOUDY    21   9  58 W10       30.00S WCI  10
KNOX *+        CLOUDY    18  10  73 W9        29.98F WCI   6
LA PORTE +     CLOUDY    15   8  72 SW7       29.97S WCI   6
MICHIGAN CITY+ MOCLDY    21  10  63 SW6       29.97S WCI  14
MONTICELLO +   PTCLDY    15   7  69 CALM      30.00F
RENSSELAER +   CLOUDY    18   9  68 CALM      30.01S
VALPARAISO     CLOUDY    18   9  68 SW7       29.98F WCI   9

$$

LMZ046-743>745-130500-
SOUTHERN LAKE MICHIGAN

STATION/POSITION TIME  TEMP    WIND        PRES    WAVE
                       AIR SEA DIR/SP/G            HT
                 (UTC) (F)     (DEG/KT/KT) (MB)    (FT)
BURNS HARBOR     0340   23     280/ 11/ 17 1015.2F
MICHIGAN CITY    0340   23     290/ 14/ 16   N/A

$$

INZ004-005-014>016-021>024-130500-
NORTH CENTRAL INDIANA

CITY           SKY/WX    TMP DP  RH WIND       PRES   REMARKS
GOSHEN         CLOUDY    18  10  71 W14       29.94F WCI   4
LOGANSPORT +   MOCLDY    18  10  73 W6        30.01F WCI   9
PERU/GRISSOM   CLOUDY    17  10  72 W10       29.98F WCI   5
ROCHESTER +    CLOUDY    19  10  68 W6        29.98F WCI  11
SOUTH BEND     CLOUDY    17  11  77 SW8       29.95F WCI   7
WARSAW +       CLOUDY    18   9  68 W12       29.95F WCI   5

$$

INZ006>009-017-018-025>027-130500-
NORTHEAST INDIANA

CITY           SKY/WX    TMP DP  RH WIND       PRES   REMARKS
AUBURN +       FLURRIES  21  14  73 W7        29.94F WCI  13
FORT WAYNE     CLOUDY    18  10  71 W15       29.95F WCI   4
HUNTINGTON +   CLOUDY    16   8  68 W10       29.96F WCI   4
KENDALLVILLE + LGT SNOW  19  15  86 W8        29.92F WCI   8

$$

INZ028-029-035-036-043>045-051>053-130500-
WEST CENTRAL INDIANA

CITY           SKY/WX    TMP DP  RH WIND       PRES   REMARKS
CRAWFORDSVL +  CLOUDY    16   7  68 MISG        N/A
GREENCASTLE +  CLOUDY    21   5  49 CALM      30.04S
LAFAYETTE      CLOUDY    16   9  74 CALM      30.02F
TERRE HAUTE    CLOUDY    22   8  55 W5        30.05F WCI  16

$$

INZ030>032-037>040-046>048-054>057-064-065-130500-
CENTRAL INDIANA

CITY           SKY/WX    TMP DP  RH WIND       PRES   REMARKS
FRANKFORT +    CLEAR     17   8  67 W6        30.02F WCI   9
INDIANAPOLIS   CLEAR     18   6  59 NW9       30.02S WCI   7
-EAGLE CREEK   CLEAR     19   6  57 NW9       30.01F WCI   8
KOKOMO +       CLOUDY    16  10  77 W12       30.00F WCI   3
MARION +       CLEAR     16  10  79 W8        29.99S WCI   5
MT COMFORT *+  CLEAR     18  10  73 NW9       30.00F WCI   6
SHELBYVILLE    CLEAR     20   7  57 W7        30.01F WCI  11
ZIONSVILLE +   CLEAR     15   8  73 W5        30.01F WCI   7

$$

INZ033-034-041-042-049-050-058-059-130500-
EAST CENTRAL INDIANA

CITY           SKY/WX    TMP DP  RH WIND       PRES   REMARKS
MUNCIE         CLEAR     17   8  67 W6        29.98F WCI   9
RICHMOND +     CLEAR     14   9  79 W6        29.97F WCI   5

$$

INZ060-061-067>069-081>083-085>088-130500-
SOUTHWEST INDIANA

CITY           SKY/WX    TMP DP  RH WIND       PRES   REMARKS
EVANSVILLE     CLEAR     25  11  55 CALM      30.11S
HUNTINGBURG +  CLEAR     23  10  57 W6        30.08F WCI  16
WASHINGTON +   CLEAR     23   9  55 W3        30.08S

$$

INZ062-063-066-070>080-084-089>092-130500-
SOUTH CENTRAL AND SOUTHEAST INDIANA

CITY           SKY/WX    TMP DP  RH WIND       PRES   REMARKS
BEDFORD +      CLEAR     23   5  46 W6        30.04F WCI  16
BLOOMINGTON    CLEAR     21   5  50 W5        30.03F WCI  15
MADISON *+     CLEAR     23   9  54 W3        30.05S
NORTH VERNON + CLEAR     19   9  63 W6        30.03F WCI  11
SEYMOUR +      CLEAR     19   7  58 W3        30.05S

$$





USA.gov is the U.S. government's official web portal to all federal, state and local government web resources and services.